Jackson, TN

4:52 AM CDT on April 25, 2018 (GMT -0500)
McKellar-Sipes Regional

Weather History for KMKL - October, 2011

Change the Weather History Date:

Friday, October 28, 2011

  Actual Average Record
Temperature  
Mean Temperature 44 °F 57 °F  
Max Temperature 56 °F 69 °F 85 °F (2016)
Min Temperature 32 °F 44 °F 26 °F (1957)
Degree Days  
Heating Degree Days 21 9  
Month to date heating degree days 172 159  
Since 1 July heating degree days 189 185  
Cooling Degree Days 0 1  
Month to date cooling degree days 26 46  
Year to date cooling degree days 1924 1689  
Moisture  
Dew Point 40 °F    
Average Humidity 75    
Maximum Humidity 100    
Minimum Humidity 50    
Precipitation  
Precipitation 0.38 in 0.12 in 1.16 in (1979)
Month to date precipitation 0.95 3.40  
Year to date precipitation 43.00 42.65  
Sea Level Pressure  
Sea Level Pressure 30.12 in    
Wind  
Wind Speed 8 mph (NNE)    
Max Wind Speed 21 mph    
Max Gust Speed 25 mph    
Visibility 10 miles    
Events Rain    
T = Trace of Precipitation, MM = Missing Value Source: NWS Daily Summary

Daily Weather History Graph

Daily Weather History Graph

Search for Another Location

Airport or City:

Astronomy

Oct. 28, 2011 Rise Set
Actual Time 7:13 AM CDT 6:04 PM CDT
Civil Twilight 6:47 AM CDT 6:31 PM CDT
Nautical Twilight 6:17 AM CDT 7:00 PM CDT
Astronomical Twilight 5:47 AM CDT 7:30 PM CDT
Moon 9:23 AM CDT (10/28) 7:34 PM CDT (10/28)
Length of Visible Light 11h 43m
Length of Day
10h 51m
Waxing Crescent, 5% of the Moon is Illuminated
Oct 28
Waxing Crescent
Nov 2
First Quarter
Nov 10
Full
Nov 18
Last Quarter
Nov 25
New

Hourly Weather History & Observations

Time (CDT) Temp. Windchill Dew Point Humidity Pressure Visibility Wind Dir Wind Speed Gust Speed Precip Events Conditions
12:53 AM 48.0 °F - 45.0 °F 89% 30.06 in 10.0 mi NNE 9.2 mph - N/A   Overcast
1:53 AM 48.9 °F - 45.0 °F 86% 30.06 in 10.0 mi NE 9.2 mph - N/A   Overcast
2:53 AM 48.2 °F - 44.6 °F 87% 30.05 in 7.0 mi NE 10.4 mph - N/A Rain Light Rain
3:53 AM 46.9 °F - 45.0 °F 93% 30.05 in 10.0 mi NNE 6.9 mph - 0.08 in Rain Light Rain
4:53 AM 46.9 °F - 45.0 °F 93% 30.05 in 7.0 mi NE 11.5 mph - 0.09 in Rain Light Rain
5:53 AM 46.0 °F 41.9 °F 44.1 °F 93% 30.11 in 7.0 mi North 8.1 mph - 0.06 in Rain Rain
6:53 AM 46.0 °F 41.4 °F 43.0 °F 89% 30.10 in 10.0 mi NE 9.2 mph - 0.09 in Rain Light Rain
7:53 AM 46.0 °F 41.9 °F 43.0 °F 89% 30.12 in 10.0 mi NNE 8.1 mph - 0.02 in Rain Light Rain
8:53 AM 46.0 °F 40.6 °F 43.0 °F 89% 30.14 in 10.0 mi North 11.5 mph - 0.00 in   Overcast
9:40 AM 46.4 °F 41.1 °F 42.8 °F 87% 30.14 in 10.0 mi North 11.5 mph - 0.01 in   Overcast
9:53 AM 46.9 °F - 43.0 °F 86% 30.14 in 10.0 mi NNE 11.5 mph - 0.01 in   Overcast
10:35 AM 48.2 °F - 42.8 °F 82% 30.14 in 10.0 mi NNE 13.8 mph - N/A   Overcast
10:53 AM 48.9 °F - 43.0 °F 80% 30.14 in 10.0 mi NNE 12.7 mph - N/A   Overcast
11:48 AM 51.8 °F - 42.8 °F 71% 30.14 in 10.0 mi NNE 18.4 mph - N/A   Overcast
11:53 AM 50.0 °F - 41.0 °F 71% 30.13 in 10.0 mi NNE 13.8 mph - N/A   Mostly Cloudy
12:53 PM 50.0 °F - 41.0 °F 71% 30.11 in 10.0 mi North 12.7 mph - N/A   Mostly Cloudy
1:13 PM 51.8 °F - 41.0 °F 67% 30.11 in 10.0 mi North 16.1 mph - N/A   Overcast
1:53 PM 52.0 °F - 39.9 °F 63% 30.10 in 10.0 mi NNE 16.1 mph - N/A   Overcast
2:04 PM 51.8 °F - 39.2 °F 62% 30.10 in 10.0 mi NNE 15.0 mph 19.6 mph N/A   Overcast
2:53 PM 55.0 °F - 39.0 °F 55% 30.09 in 10.0 mi North 18.4 mph 24.2 mph N/A   Mostly Cloudy
3:53 PM 53.1 °F - 37.9 °F 57% 30.10 in 10.0 mi North 15.0 mph - N/A   Mostly Cloudy
4:53 PM 53.1 °F - 36.0 °F 52% 30.11 in 10.0 mi North 11.5 mph - N/A   Clear
5:53 PM 51.1 °F - 36.0 °F 56% 30.12 in 10.0 mi NNE 10.4 mph 18.4 mph N/A   Scattered Clouds
6:53 PM 46.0 °F 43.9 °F 36.0 °F 68% 30.14 in 10.0 mi North 4.6 mph - N/A   Clear
7:53 PM 42.8 °F - 35.6 °F 76% 30.16 in 10.0 mi Calm Calm - N/A   Clear
8:53 PM 36.0 °F - 34.0 °F 93% 30.17 in 10.0 mi Calm Calm - N/A   Clear
9:53 PM 37.0 °F - 35.1 °F 93% 30.17 in 10.0 mi Calm Calm - N/A   Clear
10:53 PM 35.1 °F - 34.0 °F 96% 30.18 in 9.0 mi Calm Calm - N/A   Clear
11:53 PM 34.0 °F - 33.1 °F 96% 30.18 in 8.0 mi Calm Calm - N/A   Clear